#timestamp,LO_Frequency,Hit 
1500321615.7,286054120.2,N
1500321635.5,286054121.9,N
1500321655.3,286054122.4,N
1500321675.2,286054122.0,N
1500321695.0,286054122.2,N
1500321695.9,286054122.2,N
1500321715.7,286054122.0,N
1500321735.6,286054123.1,N
1500321755.4,286054121.7,N
1500321775.2,286054121.7,N
1500321795.1,286054123.5,N
1500321796.0,286054123.5,N
1500321815.8,286054126.0,N
1500321835.6,286054123.4,N
1500321855.5,286054125.5,N
1500321875.3,286054124.2,N
1500321895.1,286054125.4,N
1500321915.9,286054125.0,N
1500321935.7,286054124.7,N
1500321955.5,286054125.2,N
1500321975.4,286054125.4,N
1500321995.2,286054122.9,N
1500322015.0,286054125.8,N
1500322015.9,286054125.8,N
1500322035.8,286054127.4,N
1500322055.6,286054127.6,N
1500322075.4,286054125.7,N
1500322095.3,286054123.4,N
1500322115.1,286054125.0,N
1500322116.0,286054125.0,N
1500322135.8,286054125.6,N
1500322155.6,286054124.5,N
1500322175.5,286054125.2,N
1500322195.3,286054127.1,N
1500322215.1,286054126.4,N
1500322235.9,286054127.5,N
1500322255.0,286054127.6,N
1500322255.9,286054127.6,N
1500322275.7,286054126.4,N
1500322295.6,286054127.6,N
1500322315.4,286054127.6,N
1500322335.2,286054124.8,N
1500322355.1,286054125.0,N
1500322356.0,286054125.0,N
1500322375.8,286054125.7,N
1500322395.6,286054127.2,N
1500322415.5,286054125.2,N
1500322435.3,286054124.7,N
1500322455.1,286054127.5,N
1500322475.9,286054127.9,N
1500322495.7,286054128.6,N
1500322515.5,286054128.2,N
1500322535.4,286054127.9,N
1500322555.2,286054127.8,N
1500322575.0,286054127.8,N
1500322575.9,286054127.8,N
1500322595.8,286054128.5,N
1500322615.6,286054128.0,N
1500322635.4,286054127.8,N
1500322655.2,286054128.4,N
1500322675.1,286054130.4,N
1500322676.0,286054130.4,N
1500322695.8,286054132.3,N
1500322715.6,286054131.7,N
1500322735.5,286054130.3,N
1500322755.3,286054130.7,N
1500322775.1,286054131.9,N
1500322795.9,286054131.1,N
1500322815.7,286054132.2,N
1500322835.5,286054132.0,N
1500322855.4,286054129.4,N
1500322875.2,286054131.4,N
1500322895.0,286054133.3,N
1500322895.9,286054133.3,N
1500322915.8,286054131.5,N
1500322935.6,286054131.9,N
1500322955.4,286054132.7,N
1500322975.3,286054133.5,N
1500322995.1,286054131.2,N
1500322996.0,286054131.2,N
1500323015.8,286054131.2,N
1500323035.7,286054131.4,N
1500323055.5,286054131.7,N
1500323075.3,286054133.0,N
1500323095.2,286054137.2,N
1500323115.9,286054134.7,N
1500323135.7,286054135.2,N
1500323155.6,286054135.6,N
1500323175.4,286054134.1,N
1500323195.2,286054137.1,N
1500323215.0,286054134.2,N
1500323216.0,286054134.2,N
1500323235.8,286054138.7,N
1500323255.6,286054134.5,N
1500323275.4,286054136.1,N
1500323295.3,286054136.7,N
1500323315.1,286054134.8,N
1500323335.8,286054135.8,N
1500323355.7,286054136.3,N
1500323375.5,286054138.6,N
1500323395.3,286054138.3,N
1500323415.2,286054137.2,N
1500323435.9,286054138.4,N
1500323455.7,286054137.3,N
1500323475.6,286054135.7,N
1500323495.4,286054136.4,N
1500323515.2,286054137.3,N
1500323535.1,286054138.8,N
1500323536.0,286054138.8,N
1500323555.8,286054137.5,N
1500323575.6,286054135.8,N
1500323595.5,286054135.8,N
1500323615.3,286054136.2,N
1500323635.1,286054137.2,N
1500323655.9,286054137.1,N
1500323675.7,286054137.2,N
1500323695.5,286054136.9,N
1500323715.3,286054136.3,N
1500323735.2,286054138.7,N
1500323755.0,286054137.3,N
1500323755.9,286054137.3,N
1500323775.7,286054139.6,N
1500323795.6,286054140.2,N
1500323815.4,286054141.7,N
1500323835.2,286054141.5,N
1500323855.1,286054141.7,N
1500323856.0,286054141.7,N
1500323875.8,286054141.0,N
1500323895.6,286054141.8,N
1500323915.5,286054141.6,N
1500323935.3,286054139.3,N
1500323955.1,286054139.6,N
1500323975.9,286054139.6,N
1500323995.7,286054139.2,N
1500324015.5,286054139.3,N
1500324035.4,286054141.9,N
1500324055.2,286054141.7,N
1500324075.0,286054143.5,N
1500324075.9,286054143.5,N
1500324095.8,286054142.7,N
1500324115.6,286054145.1,N
1500324135.4,286054140.5,N
1500324155.3,286054144.9,N
1500324175.1,286054144.8,N
1500324195.8,286054142.6,N
1500324215.7,286054142.4,N
1500324235.5,286054143.0,N
1500324255.3,286054143.6,N
1500324275.2,286054143.2,N
1500324295.9,286054145.1,N
1500324315.7,286054144.1,N
1500324335.6,286054146.8,N
1500324355.4,286054144.5,N
1500324375.2,286054144.3,N
1500324395.1,286054144.3,N
1500324396.0,286054144.3,N
1500324415.8,286054146.2,N
1500324435.6,286054144.2,N
1500324455.5,286054146.7,N
1500324475.3,286054146.4,N
1500324495.1,286054147.2,N
1500324515.9,286054149.7,N
1500324535.7,286054147.6,N
1500324555.5,286054148.6,N
1500324575.3,286054151.5,N
1500324595.2,286054148.6,N
1500324615.0,286054149.1,N
1500324615.9,286054149.1,N
1500324635.7,286054149.5,N
1500324655.6,286054148.7,N
1500324675.4,286054151.6,N
1500324695.2,286054148.6,N
1500324715.1,286054148.6,N
1500324716.0,286054148.6,N
1500324735.8,286054150.6,N
1500324755.6,286054148.9,N
1500324775.5,286054150.4,N
1500324795.3,286054154.6,N
1500324815.1,286054154.2,N
1500324835.9,286054154.6,N
1500324855.7,286054151.9,N
1500324875.5,286054153.5,N
1500324895.4,286054152.3,N
1500324915.2,286054152.0,N
1500324935.0,286054150.2,N
1500324935.9,286054150.2,N
1500324955.8,286054151.8,N
1500324975.6,286054152.6,N
1500324995.4,286054154.4,N
1500325015.3,286054155.1,N
1500325035.1,286054153.3,N
1500325036.0,286054153.3,N
1500325055.8,286054155.5,N
1500325075.6,286054153.4,N
1500325095.5,286054155.4,N
1500325115.3,286054153.3,N
1500325135.1,286054154.2,N
1500325155.9,286054154.7,N
1500325175.7,286054156.3,N
1500325195.5,286054156.3,N
